Location: Monfort
(47.1967°N, 0.2115°W)
Time: 12:05:45
(UTC+00:00)

SAR-Lupe-4 - Pass Details

Date: 24 October 2020
Orbit: 481 x 484 km, 98.2° (Epoch: 22 November)

Event Time Altitude Azimuth Distance (km) Brightness Sun altitude
Rises 17:34:59 0° 20° (NNE) 2,556 6.9 -7.2°
Reaches altitude 10° 17:37:08 10° 27° (NNE) 1,670 5.9 -7.5°
Maximum altitude 17:40:34 42° 100° (E) 701 3.9 -8.1°
Drops below altitude 10° 17:43:57 10° 172° (S) 1,656 6.3 -8.7°
Sets 17:46:04 0° 180° (S) 2,530 7.3 -9.0°
